Starlink 36263

operational
NORAD ID: 67202 Int'l Des: 2025-304 Owner: SPXS Country: US Constellation: starlink
LEOCIRCULAR

Über Starlink 36263

Beschreibung wird geladen...

Live-Position

3D-Globus wird geladen...

Nächste Überflüge

Höhenverlauf

Altitude vs Time

uPlot chart will show altitude changes over time

Zweizeiliger Elementsatz

1 67202C 25304L 25352.76645833 .00728380 00000+0 99903-3 0 3523
2 67202 69.9982 31.2750 0009148 254.7466 229.2481 16.05113595 11
Epoch: 18. Dez. 2025 • Age: 54 hours

Aktueller Status

Höhe 262.7 km
Geschwindigkeit 7.75 km/s
Subsatellitenpunkt 32.62°N, 137.25°W
Startdatum 17. Dez. 2025
Alter 2 days
Typ internet

Technische Details

Klassifizierung Payload
Masse 575.00 kg
Trockenmasse 530.00 kg
Gesamtmasse 575.00 kg
Länge 0.30 m
Durchmesser 4.10 m
Spannweite 29.00 m
Form Box + pan
Hersteller SPXS
Bus-Typ Starlink V2MO
Phasenstatus In Orbit
Besitzer/Staat SPXS/US

Große Konstellationen

Loading constellations...